Location: Woodhurst
(52.3667°N, 0.0667°W)
Time: 07:03:13
(UTC+00:00)

Cosmos 1300 - Pass Details

Date: 19 May 2025
Orbit: 394 x 397 km, 82.5° (Epoch: 18 June)

Event Time Altitude Azimuth Distance (km) Brightness Sun altitude
Rises 23:48:12 0° 350° (N) 2,324 7.7 -17.6°
Reaches altitude 10° 23:50:14 10° 351° (N) 1,458 6.3 -17.6°
Maximum altitude 23:53:24 81° 79° (E) 409 2.1 -17.6°
Enters shadow 23:53:53 60° 153° (SSE) 462 2.1 -17.6°
